This is the latest recevied weather packets stored in our database for station/object HB9HFD-13. If no packets are shown the sender has not sent any weather packets the latest 10 day(s).
| Time | Temp. | Humidity | Pressure | Rain* | Wind** | Luminosity | Snow |
|---|---|---|---|---|---|---|---|
| 1787479553 | 21.67° C | 58% | 1019.1 hPa | 0 mm | - | - | - |
| 1787479252 | 21.67° C | 57% | 1019.2 hPa | 0 mm | - | - | - |
| 1787478952 | 21.67° C | 57% | 1019.1 hPa | 0 mm | - | - | - |
| 1787478652 | 21.67° C | 59% | 1019.2 hPa | 0 mm | - | - | - |
| 1787478352 | 21.11° C | 58% | 1019.3 hPa | 0 mm | - | - | - |
| 1787478051 | 21.11° C | 57% | 1019.2 hPa | 0 mm | - | - | - |
| 1787477751 | 21.11° C | 57% | 1019.2 hPa | 0 mm | - | - | - |
| 1787477451 | 21.11° C | 56% | 1019.5 hPa | 0 mm | - | - | - |
| 1787477151 | 21.11° C | 56% | 1019.4 hPa | 0 mm | - | - | - |
| 1787476850 | 21.11° C | 56% | 1019.4 hPa | 0 mm | - | - | - |
| 1787476550 | 21.11° C | 57% | 1019.4 hPa | 0 mm | - | - | - |
| 1787476250 | 21.11° C | 59% | 1019.4 hPa | 0 mm | - | - | - |
| 1787475950 | 20.56° C | 58% | 1019.4 hPa | 0 mm | - | - | - |
| 1787475649 | 20.56° C | 58% | 1019.5 hPa | 0 mm | - | - | - |
| 1787475349 | 20.56° C | 57% | 1019.4 hPa | 0 mm | - | - | - |
| 1787475049 | 20.56° C | 60% | 1019.4 hPa | 0 mm | - | - | - |
| 1787474748 | 20° C | 58% | 1019.4 hPa | 0 mm | - | - | - |
| 1787474448 | 20° C | 59% | 1019.4 hPa | 0 mm | - | - | - |
| 1787474148 | 20° C | 58% | 1019.4 hPa | 0 mm | - | - | - |
| 1787473848 | 20° C | 59% | 1019.4 hPa | 0 mm | - | - | - |
| 1787473547 | 20° C | 59% | 1019.4 hPa | 0 mm | - | - | - |
| 1787473247 | 19.44° C | 60% | 1019.4 hPa | 0 mm | - | - | - |
| 1787472947 | 19.44° C | 59% | 1019.4 hPa | 0 mm | - | - | - |
| 1787472646 | 19.44° C | 60% | 1019.4 hPa | 0 mm | - | - | - |
| 1787472346 | 19.44° C | 59% | 1019.3 hPa | 0 mm | - | - | - |
* Rain latest hour (hover to see other rain measurements)
** Current wind speed in m/s (hover to see current wind gust speed)